Home   Weather   Madison   Past weeks
Flag for USA

Past Weather in Madison, Wisconsin, USA — Yesterday and Last 2 Weeks

Now
70 °F

Clear.


Feels Like: 75 °F
Forecast: 82 / 62 °F
Wind: 6 mph from Northwest

Location: Dane County Regional-Truax Field

Current Time: Jun 26, 2019 at 1:11:16 am

Latest Report: Jun 25, 2019 at 11:53 pm


Visibility: 10 mi

Pressure: 29.90 "Hg

Humidity: 64%

Dew Point: 57 °F

Location of MadisonLocation

Past Weather in Madison — Graph

°F

Madison Temperature Yesterday

Maximum temperature yesterday: 80 °F (at 4:53 pm)
Minimum temperature yesterday: 61 °F (at 2:53 am)
Average temperature yesterday: 71 °F

High & Low Weather Summary for the Past Weeks

 TemperatureHumidityPressure
High80 °F (Jun 25, 4:53 pm)97% (Jun 18, 4:39 am)30.16 "Hg (Jun 18, 4:39 am)
Low49 °F (Jun 13, 5:53 am)31% (Jun 11, 11:53 am)29.55 "Hg (Jun 24, 3:53 pm)
Average65 °F74%29.86 "Hg
* Reported Jun 10 11:53 pm — Jun 25 11:53 pm, Madison. Weather by CustomWeather, © 2019

Note: Actual official high and low records may vary slightly from our data, if they occured in-between our weather recording intervals... More about our weather records

Advertising

Madison Weather History for the Previous 24 Hours

Scroll right to see more
 ConditionsComfort  
Time TempWeatherWind HumidityBarometerVisibility
11:53 pm
Tue, Jun 25
70 °FClear.6 mph64%29.90 "Hg10 mi
10:53 pm70 °FPassing clouds.No wind73%29.89 "Hg10 mi
9:53 pm74 °FPassing clouds.5 mph67%29.86 "Hg10 mi
8:53 pm75 °FPassing clouds.5 mph64%29.82 "Hg10 mi
7:53 pm78 °FPassing clouds.5 mph56%29.80 "Hg10 mi
6:53 pm79 °FPassing clouds.9 mph52%29.79 "Hg10 mi
5:53 pm80 °FPassing clouds.7 mph52%29.79 "Hg10 mi
4:53 pm80 °FScattered clouds.9 mph51%29.79 "Hg10 mi
3:53 pm79 °FScattered clouds.8 mph56%29.79 "Hg10 mi
2:53 pm77 °FScattered clouds.5 mph62%29.78 "Hg10 mi
1:53 pm71 °FMostly cloudy.6 mph73%29.80 "Hg10 mi
12:53 pm76 °FMostly cloudy.8 mph60%29.80 "Hg10 mi
11:53 am78 °FPartly sunny.6 mph54%29.78 "Hg10 mi
10:53 am73 °FPartly sunny.5 mph64%29.80 "Hg10 mi
9:53 am71 °FPartly sunny.7 mph66%29.80 "Hg10 mi
8:53 am66 °FLight rain. Broken clouds.No wind78%29.82 "Hg8 mi
7:53 am67 °FScattered clouds.7 mph73%29.80 "Hg10 mi
6:53 am64 °FPassing clouds.5 mph81%29.78 "Hg10 mi
5:53 am61 °FSunny.3 mph87%29.77 "Hg10 mi
4:53 am61 °FClear.No wind87%29.75 "Hg10 mi
3:53 am62 °FPassing clouds.8 mph83%29.75 "Hg10 mi
2:53 am61 °FClear.3 mph83%29.73 "Hg10 mi
1:53 am62 °FClear.6 mph83%29.72 "Hg10 mi
Weather by CustomWeather, © 2019

See weather overview